When you browse on this site, cookies collect data to enhance your experience and personalize the content and advertising you see.
Visit our Privacy Policy to learn more. By continuing to use the site, you agree to this use of cookies and data.
  • In Schweiz
  • Länderverzeichnis
  • Für 7 Tage
  • Wassertemperatur
  • Satellitenkarten
  • Wetterkarte
  • Widgets
  • user-avatar
    Anmelden

    Stündliche Wetter Seredyntsi

    Heute, 20 Februar, Mittwoch

    Zeit Temperatur Niederschläge Wind Luftdruck Luftfeuchtigkeit
    00:00 +1°C° 0 mm 4 m/S 734 mmHg 87%
    01:00 +1°C° 0 mm 4 m/S 734 mmHg 87%
    02:00 +2°C° 0 mm 2 m/S 734 mmHg 90%
    03:00 +1°C° 0 mm 3 m/S 734 mmHg 91%
    04:00 +1°C° 0 mm 3 m/S 733 mmHg 91%
    05:00 +1°C° 0 mm 3 m/S 733 mmHg 91%
    06:00 0°C° 0 mm 4 m/S 733 mmHg 92%
    07:00 0°C° 0 mm 4 m/S 734 mmHg 93%
    08:00 0°C° 0 mm 4 m/S 734 mmHg 94%
    09:00 +1°C° 0.1 mm 5 m/S 734 mmHg 90%
    10:00 +2°C° 0.1 mm 5 m/S 734 mmHg 87%
    11:00 +3°C° 0.1 mm 6 m/S 735 mmHg 83%
    12:00 +2°C° 0 mm 6 m/S 735 mmHg 81%
    13:00 +2°C° 0 mm 6 m/S 735 mmHg 80%
    14:00 +2°C° 0 mm 6 m/S 735 mmHg 78%
    15:00 +2°C° 0 mm 6 m/S 735 mmHg 76%
    16:00 +2°C° 0 mm 6 m/S 735 mmHg 74%
    17:00 +2°C° 0 mm 6 m/S 735 mmHg 71%
    18:00 +2°C° 0 mm 6 m/S 736 mmHg 72%
    19:00 +1°C° 0 mm 6 m/S 736 mmHg 74%
    20:00 +1°C° 0 mm 6 m/S 736 mmHg 75%
    21:00 +1°C° 0 mm 6 m/S 736 mmHg 76%
    22:00 +1°C° 0 mm 6 m/S 736 mmHg 77%
    23:00 +1°C° 0 mm 6 m/S 736 mmHg 78%

    Morgen, 21 Februar, Donnerstag

    Zeit Temperatur Niederschläge Wind Luftdruck Luftfeuchtigkeit
    00:00 -1°C° 0 mm 6 m/S 736 mmHg 79%
    01:00 -1°C° 0 mm 7 m/S 736 mmHg 80%
    02:00 -1°C° 0 mm 7 m/S 736 mmHg 81%
    03:00 -1°C° 0 mm 7 m/S 737 mmHg 82%
    04:00 -2°C° 0 mm 6 m/S 737 mmHg 83%
    05:00 -3°C° 0 mm 6 m/S 737 mmHg 84%
    06:00 -3°C° 0 mm 6 m/S 737 mmHg 81%
    07:00 -3°C° 0 mm 6 m/S 737 mmHg 79%
    08:00 -4°C° 0 mm 6 m/S 738 mmHg 77%
    09:00 -3°C° 0 mm 7 m/S 738 mmHg 69%
    10:00 -2°C° 0 mm 7 m/S 738 mmHg 61%
    11:00 -1°C° 0 mm 7 m/S 738 mmHg 53%
    12:00 -1°C° 0 mm 7 m/S 738 mmHg 51%
    13:00 0°C° 0 mm 7 m/S 738 mmHg 49%
    14:00 +2°C° 0 mm 7 m/S 738 mmHg 47%
    15:00 +1°C° 0 mm 6 m/S 738 mmHg 51%
    16:00 +1°C° 0 mm 5 m/S 738 mmHg 56%
    17:00 +1°C° 0 mm 4 m/S 738 mmHg 60%
    18:00 +1°C° 0 mm 3 m/S 738 mmHg 66%
    19:00 +2°C° 0 mm 2 m/S 738 mmHg 72%
    20:00 +2°C° 0 mm 2 m/S 738 mmHg 78%
    21:00 +1°C° 0.4 mm 2 m/S 737 mmHg 79%
    22:00 +1°C° 0.4 mm 2 m/S 737 mmHg 80%
    23:00 +1°C° 0.4 mm 2 m/S 737 mmHg 81%

    übermorgen, 22 Februar, Freitag

    Zeit Temperatur Niederschläge Wind Luftdruck Luftfeuchtigkeit
    00:00 -1°C° 0.6 mm 2 m/S 737 mmHg 85%
    01:00 -2°C° 0.6 mm 3 m/S 736 mmHg 89%
    02:00 -2°C° 0.6 mm 3 m/S 736 mmHg 94%
    03:00 -4°C° 0.6 mm 4 m/S 736 mmHg 93%
    04:00 -4°C° 0.6 mm 4 m/S 735 mmHg 93%
    05:00 -6°C° 0.6 mm 5 m/S 735 mmHg 92%
    06:00 -6°C° 0.3 mm 5 m/S 735 mmHg 90%
    07:00 -6°C° 0.3 mm 5 m/S 736 mmHg 88%
    08:00 -8°C° 0.3 mm 6 m/S 736 mmHg 86%
    09:00 -8°C° 0.2 mm 6 m/S 737 mmHg 83%
    10:00 -8°C° 0.2 mm 6 m/S 738 mmHg 80%
    11:00 -8°C° 0.2 mm 6 m/S 739 mmHg 78%
    12:00 -8°C° 0 mm 6 m/S 740 mmHg 72%
    13:00 -8°C° 0 mm 6 m/S 741 mmHg 66%
    14:00 -8°C° 0 mm 6 m/S 741 mmHg 61%
    15:00 -9°C° 0 mm 6 m/S 742 mmHg 61%
    16:00 -8°C° 0 mm 5 m/S 742 mmHg 62%
    17:00 -10°C° 0 mm 5 m/S 743 mmHg 62%
    18:00 -10°C° 0 mm 5 m/S 743 mmHg 64%
    19:00 -10°C° 0 mm 4 m/S 744 mmHg 65%
    20:00 -11°C° 0 mm 4 m/S 745 mmHg 66%
    21:00 -11°C° 0 mm 4 m/S 745 mmHg 67%
    22:00 -11°C° 0 mm 4 m/S 745 mmHg 68%
    23:00 -11°C° 0 mm 4 m/S 746 mmHg 70%

    23 Februar, Samstag

    Zeit Temperatur Niederschläge Wind Luftdruck Luftfeuchtigkeit
    00:00 -11°C° 0 mm 4 m/S 746 mmHg 69%
    01:00 -12°C° 0 mm 5 m/S 746 mmHg 69%
    02:00 -12°C° 0 mm 5 m/S 747 mmHg 68%
    03:00 -12°C° 0 mm 5 m/S 747 mmHg 68%
    04:00 -12°C° 0 mm 5 m/S 747 mmHg 68%
    05:00 -12°C° 0 mm 5 m/S 747 mmHg 68%
    06:00 -12°C° 0 mm 5 m/S 747 mmHg 70%
    07:00 -12°C° 0 mm 5 m/S 748 mmHg 71%
    08:00 -12°C° 0 mm 5 m/S 748 mmHg 73%
    09:00 -12°C° 0 mm 5 m/S 749 mmHg 71%
    10:00 -11°C° 0 mm 5 m/S 749 mmHg 68%
    11:00 -11°C° 0 mm 5 m/S 749 mmHg 66%
    12:00 -10°C° 0 mm 5 m/S 749 mmHg 65%
    13:00 -10°C° 0 mm 5 m/S 749 mmHg 65%
    14:00 -10°C° 0 mm 6 m/S 749 mmHg 64%
    15:00 -10°C° 0 mm 5 m/S 749 mmHg 65%
    16:00 -10°C° 0 mm 5 m/S 749 mmHg 66%
    17:00 -9°C° 0 mm 4 m/S 749 mmHg 67%
    18:00 -9°C° 0 mm 4 m/S 749 mmHg 68%
    19:00 -10°C° 0 mm 4 m/S 749 mmHg 69%
    20:00 -10°C° 0 mm 4 m/S 749 mmHg 71%
    21:00 -10°C° 0 mm 3 m/S 749 mmHg 72%
    22:00 -10°C° 0 mm 3 m/S 749 mmHg 73%
    23:00 -10°C° 0 mm 3 m/S 749 mmHg 74%

    24 Februar, Sonntag

    Zeit Temperatur Niederschläge Wind Luftdruck Luftfeuchtigkeit
    00:00 -10°C° 0 mm 3 m/S 749 mmHg 74%
    01:00 -9°C° 0 mm 2 m/S 749 mmHg 75%
    02:00 -9°C° 0 mm 2 m/S 749 mmHg 75%
    03:00 -9°C° 0 mm 2 m/S 749 mmHg 76%
    04:00 -10°C° 0 mm 2 m/S 749 mmHg 77%
    05:00 -10°C° 0 mm 2 m/S 748 mmHg 78%
    06:00 -9°C° 0 mm 2 m/S 748 mmHg 78%
    07:00 -9°C° 0 mm 2 m/S 749 mmHg 77%
    08:00 -9°C° 0 mm 2 m/S 749 mmHg 76%
    09:00 -8°C° 0 mm 2 m/S 749 mmHg 75%
    10:00 -7°C° 0 mm 2 m/S 749 mmHg 74%
    11:00 -7°C° 0 mm 3 m/S 749 mmHg 72%
    12:00 -6°C° 0 mm 3 m/S 749 mmHg 75%
    13:00 -6°C° 0 mm 3 m/S 748 mmHg 77%
    14:00 -5°C° 0 mm 3 m/S 748 mmHg 79%
    15:00 -5°C° 0 mm 3 m/S 748 mmHg 80%
    16:00 -4°C° 0 mm 2 m/S 748 mmHg 81%
    17:00 -4°C° 0 mm 2 m/S 748 mmHg 81%
    18:00 -4°C° 0 mm 2 m/S 748 mmHg 84%
    19:00 -3°C° 0 mm 1 m/S 748 mmHg 87%
    20:00 -3°C° 0 mm 1 m/S 748 mmHg 89%
    21:00 -3°C° 0 mm 1 m/S 748 mmHg 90%
    22:00 -3°C° 0 mm 1 m/S 748 mmHg 92%
    23:00 -3°C° 0 mm 1 m/S 748 mmHg 93%

    25 Februar, Montag

    Zeit Temperatur Niederschläge Wind Luftdruck Luftfeuchtigkeit
    00:00 -3°C° 0 mm 1 m/S 748 mmHg 93%
    01:00 -3°C° 0 mm 1 m/S 748 mmHg 94%
    02:00 -3°C° 0 mm 1 m/S 748 mmHg 95%
    03:00 -3°C° 0 mm 1 m/S 747 mmHg 95%
    04:00 -3°C° 0 mm 1 m/S 747 mmHg 95%
    05:00 -3°C° 0 mm 1 m/S 747 mmHg 96%
    06:00 -2°C° 0 mm 1 m/S 747 mmHg 96%
    07:00 -4°C° 0 mm 2 m/S 747 mmHg 95%
    08:00 -4°C° 0 mm 2 m/S 747 mmHg 95%
    09:00 -3°C° 0 mm 2 m/S 746 mmHg 94%
    10:00 -2°C° 0 mm 2 m/S 746 mmHg 92%
    11:00 -1°C° 0 mm 2 m/S 746 mmHg 90%
    12:00 -1°C° 0 mm 3 m/S 745 mmHg 87%
    13:00 0°C° 0 mm 3 m/S 745 mmHg 85%
    14:00 -1°C° 0 mm 4 m/S 744 mmHg 82%
    15:00 -1°C° 0.1 mm 4 m/S 744 mmHg 85%
    16:00 -1°C° 0.1 mm 4 m/S 743 mmHg 89%
    17:00 -1°C° 0.1 mm 4 m/S 742 mmHg 92%
    18:00 -1°C° 0.1 mm 5 m/S 742 mmHg 93%
    19:00 -2°C° 0.1 mm 5 m/S 742 mmHg 93%
    20:00 -2°C° 0.1 mm 5 m/S 741 mmHg 94%
    21:00 -2°C° 0.1 mm 5 m/S 741 mmHg 91%
    22:00 -3°C° 0.1 mm 6 m/S 741 mmHg 88%
    23:00 -3°C° 0.1 mm 6 m/S 741 mmHg 86%
    Mehr zeigen